Simultaneous Nadir Overpasses (SNOs) Predictions

Prediction of SNOs between FY3D and TERRA Satellite Orbit:

Table of predicted SNOs for the next 14.0 days since TLE Epoch: 11/2/2024
Index Date (FY3D) Time (FY3D) Lat,Lon (FY3D) SZA (FY3D ) Date (TERRA) Time (TERRA) Lat,Lon (TERRA) SZA (TERRA ) Distance(km) Time Diff (sec)
1 11/04/2024 08:28:00 -76.50,-126.75 87.98 11/04/2024 08:28:38 -76.50,-126.82 87.97 1.96 38
2 11/04/2024 09:18:45 76.48, 40.63 92.02 11/04/2024 09:17:58 76.47, 40.75 92.01 3.16 47
3 11/06/2024 19:40:35 -76.53, 65.04 87.21 11/06/2024 19:40:58 -76.53, 65.15 87.21 2.85 23
4 11/06/2024 20:31:19 76.47,-127.41 92.75 11/06/2024 20:30:19 76.46,-127.44 92.73 1.81 60
5 11/09/2024 06:53:08 -76.50,-102.93 86.52 11/09/2024 06:53:17 -76.52,-103.02 86.51 2.80 9
6 11/09/2024 07:43:51 76.40, 64.79 93.39 11/09/2024 07:42:38 76.44, 64.40 93.42 11.32 73
7 11/11/2024 17:15:00 76.66, -78.95 94.30 11/11/2024 17:16:11 76.60, -78.51 94.26 13.02 71
8 11/11/2024 18:05:42 -76.54, 88.83 85.80 11/11/2024 18:05:34 -76.51, 88.84 85.84 3.86 8
9 11/14/2024 04:27:31 76.59, 113.24 94.89 11/14/2024 04:28:26 76.60, 113.39 94.91 4.04 55
10 11/14/2024 05:18:14 -76.52, -79.16 85.17 11/14/2024 05:17:49 -76.50, -79.28 85.19 3.65 25



Historial Predications of SNOs between FY3D and TERRA
